Regional Weather Roundup
Issued by NWS

Home | Current Version | Previous Version | Text Only | Print | Product List | Glossary On
Versions: 1 2 3 4 5 6 7 8 9 10 11 12 13 14 15 16 17 18 19 20 21 22 23 24 25 26 27 28 29 30 31 32 33 34 35 36 37 38 39 40 41 42 43 44 45 46 47 48 49 50
000
ASUS43 KMPX 291201
RWRMN
WEATHER ROUNDUP FOR MINNESOTA
NATIONAL WEATHER SERVICE TWIN CITIES/CHANHASSEN MN
700 AM CDT THU JUN 29 2017


NOTE: "FAIR" INDICATES FEW OR NO CLOUDS BELOW 12,000 FEET WITH NO
SIGNIFICANT WEATHER AND/OR OBSTRUCTIONS TO VISIBILITY. N/A MEANS
CURRENT SKY AND/OR WEATHER CONDITIONS ARE NOT AVAILABLE.

MNZ060>063-068>070-291300-
   Twin Cities Metro

CITY           SKY/WX    TMP DP  RH WIND       PRES   REMARKS
TWIN CITIES    CLOUDY    66  58  75 W12       29.72R
6HR MIN TEMP:  65; 6HR MAX TEMP:  70;

ST PAUL        CLOUDY    66  60  81 W9        29.72R
CRYSTAL        CLOUDY    65  56  72 W12       29.71R
BLAINE         CLOUDY    66  59  77 W9        29.71R
LAKEVILLE      CLOUDY    61  61 100 W3        29.74R
EDEN PRAIRIE   CLOUDY    65  59  81 W7        29.73R
6HR MIN TEMP:  63; 6HR MAX TEMP:  70;

SOUTH ST PAUL  CLOUDY    66  59  76 W8        29.72R
LAKE ELMO      CLOUDY    64  61  88 W7        29.72R
$$
MNZ001>005-007-008-013>017-022>024-027-028-291300-
   Northwest Minnesota

CITY           SKY/WX    TMP DP  RH WIND       PRES   REMARKS
BEMIDJI        CLOUDY    59  58  97 NW8       29.73R
HALLOCK        FOG       55  54  94 CALM      29.77R VSB 1/4
ROSEAU         MOSUNNY   57  54  88 W3        29.75R
WARROAD        PTSUNNY   57  54  88 N3        29.75R
THIEF RVR FALL FOG       57  57 100 N7        29.77R VSB 1
CROOKSTON      CLOUDY    59  59 100 N6        29.75F FOG
FOSSTON        CLOUDY    57  57 100 NW6       29.76R FOG
DETROIT LAKES  CLOUDY    59  57  94 NW8       29.76R FOG
MOORHEAD       CLOUDY    61  57  88 N3        29.75S
PARK RAPIDS    CLOUDY    61  56  83 NW6       29.72R
MAHNOMEN       CLOUDY    59  59  99 N6        29.75R
$$
MNZ006-009>011-018-025>026-291300-
   North Central Minnesota

CITY           SKY/WX    TMP DP  RH WIND       PRES   REMARKS
BAUDETTE       CLOUDY    59  59 100 N6        29.72R
FLAG ISLAND    CLOUDY    63  57  82 N6        29.73S
INTL FALLS     CLOUDY    60  56  86 N6        29.69R
6HR MIN TEMP:  59; 6HR MAX TEMP:  61; 6HR PCP:  0.10;

WASKISH        CLOUDY    59  57  94 N5        29.72S
BIG FORK       CLOUDY    61  57  88 CALM      29.69R
LONGVILLE      CLOUDY    61  57  88 NW6       29.70S
GRAND RAPIDS   CLOUDY    59  58  96 NW9       29.71R FOG
CRANE LAKE     DRIZZLE   57  55  94 N7        29.68R
ORR            CLOUDY    57  55  94 NW3       29.65R
COOK           CLOUDY    57  57 100 CALM      29.66R
WALKER         CLOUDY    59  58  95 NW7       29.71R
$$
MNZ012-019>021-037-291300-
   Northeast Minnesota

CITY           SKY/WX    TMP DP  RH WIND       PRES   REMARKS
DULUTH         DRIZZLE   59  59 100 NW9       29.62R FOG
6HR MIN TEMP:  55; 6HR MAX TEMP:  59; 6HR PCP:  0.33;

ELY            CLOUDY    57  57 100 N6        29.63R
HIBBING        CLOUDY    57  57 100 N9        29.65R FOG
EVELETH        CLOUDY    58  55  90 NW7       29.65R FOG
DULUTH HARBOR  CLOUDY    61  59  94 W8        29.62R
TWO HARBORS    CLOUDY    63  57  82 CALM      29.59R
SILVER BAY     DRIZZLE   57  55  94 CALM      29.58R
GRAND MARAIS     N/A     60  58  92 NE8G20    29.55R
G MARAIS ARPRT CLOUDY    54  50  87 N12G18    29.60R
$$
MNZ029>031-032-039>041-046>048-054>057-064-291300-
   West Central Minnesota

CITY           SKY/WX    TMP DP  RH WIND       PRES   REMARKS
FERGUS FALLS   CLOUDY    61  61 100 N9        29.71S
WHEATON        CLOUDY    63  57  82 NW5       29.78R
MORRIS         CLOUDY    63  61  94 NW5       29.75R
ALEXANDRIA     CLOUDY    61  58  90 N9        29.74R
ELBOW LAKE     CLOUDY    61  59  94 NW9       29.74R
WADENA         CLOUDY    61  57  88 N7        29.72R
GLENWOOD       CLOUDY    63  59  88 N8        29.74R
APPLETON       CLOUDY    63  59  88 N5        29.75R
BENSON         CLOUDY    63  59  88 N3        29.78R
ORTONVILLE     CLOUDY    63  59  88 NW3       29.78R
MADISON        CLOUDY    66  64  94 CALM      29.77R
WILLMAR        CLOUDY    63  61  94 NW3       29.77R
$$
MNZ033>034-036-042>043-049>051-058-059-291300-
   Central Minnesota

CITY           SKY/WX    TMP DP  RH WIND       PRES   REMARKS
ST CLOUD       CLOUDY    63  60  90 NW8       29.71R
6HR MIN TEMP:  63; 6HR MAX TEMP:  65;

SAUK CENTRE    CLOUDY    61  58  89 N10G17    29.72R
PAYNESVILLE    CLOUDY    63  63 100 NW6       29.74R
AITKIN         CLOUDY    59  57  94 NW6       29.66F
PINE RIVER     CLOUDY    61  57  88 MISG      29.73F
BRAINERD       CLOUDY    60  58  92 NW12      29.69F
STAPLES        CLOUDY    61  57  88 NW9       29.71S
LONG PRAIRIE   CLOUDY    61  57  88 W6        29.73R
LITTLE FALLS   CLOUDY    61  55  82 NW8       29.71R
LITCHFIELD     CLOUDY    63  61  94 NW6       29.75R
BUFFALO        CLOUDY    64  57  80 W9        29.74R
MAPLE LAKE     CLOUDY    64  60  86 W7        29.74R
HUTCHINSON     CLOUDY    60  60  98 W3        29.76R
$$
MNZ037-044-045-052-053-291300-
   East Central Minnesota

CITY           SKY/WX    TMP DP  RH WIND       PRES   REMARKS
PRINCETON      CLOUDY    64  61  88 W8        29.69R
MORA           CLOUDY    61  55  82 NW9       29.67F
CAMBRIDGE      CLOUDY    64  57  77 W5        29.66R
RUSH CITY      PTSUNNY   63  59  88 CALM      29.67R
MOOSE LAKE     CLOUDY    59  57  94 NW5       29.63F
HINCKLEY       CLOUDY    61  59  94 NW8       29.65F
CLOQUET        CLOUDY    61  57  88 NW7       29.64R
MCGREGOR       CLOUDY    59  59 100 NW9       29.66F
$$
MNZ071>073-080-081-089-090-097-098-291300-
   Southwest Minnesota

CITY           SKY/WX    TMP DP  RH WIND       PRES   REMARKS
MONTEVIDEO     CLOUDY    63  61  94 N5        29.76R
GRANITE FALLS  CLOUDY    64  61  91 W5        29.79R
CANBY          CLOUDY    62  60  93 CALM      29.78R
MARSHALL       CLOUDY    61  59  93 NW3       29.78R
REDWOOD FALLS  MOSUNNY   62  59  90 W6        29.76R
OLIVIA         CLOUDY    59  57  94 W6        29.76R
PIPESTONE      MOSUNNY   61  57  88 CALM      29.80R
WINDOM         MOSUNNY   61  57  88 CALM      29.78S FOG
WORTHINGTON    SUNNY     59  58  96 CALM      29.80R
JACKSON        SUNNY     59  59 100 CALM      29.80R FOG
TRACY          MOSUNNY   61  60  95 CALM      29.78R
SLAYTON        CLOUDY    57  56  95 CALM      29.80R
$$
MNZ065>067-074>077-082>085-091>093-291300-
   South Central Minnesota

CITY           SKY/WX    TMP DP  RH WIND       PRES   REMARKS
MANKATO        MOSUNNY   62  60  93 CALM      29.75R
NEW ULM        CLOUDY    61  59  94 W5        29.75S
ST JAMES       MOSUNNY   63  61  94 SW3       29.78R
FAIRMONT       SUNNY     62  60  93 W6        29.77F
GLENCOE        CLOUDY    61  61  99 W3        29.75R
FARIBAULT      SUNNY     63  61  94 W6        29.75R
OWATONNA       SUNNY     63  61  94 W8        29.75R
WASECA         SUNNY     59  59 100 SW6       29.76S
ALBERT LEA     SUNNY     63  61  94 CALM      29.74F
$$
MNZ078>079-086>088-094>096-291300-
   Southeast Minnesota

CITY           SKY/WX    TMP DP  RH WIND       PRES   REMARKS
ROCHESTER      SUNNY     62  61  96 W12       29.77R
6HR MIN TEMP:  60; 6HR MAX TEMP:  67;

RED WING       CLOUDY    64  57  77 W7        29.70R
STANTON        SUNNY     64  60  86 W5        29.73R
DODGE CENTER   SUNNY     63  59  88 W9        29.76R
WINONA         CLOUDY    66  61  82 NW8       29.71F
AUSTIN         SUNNY     63  61  94 NW6       29.75S
PRESTON        CLOUDY    62  59  90 W10       29.76R
$$
ABBREVIATIONS USED IN REMARKS
   TC - TEMPERATURES IN CELSIUS
  WCI - WIND CHILL INDEX
   HX - HEAT INDEX
  VSB - VISIBILITY
$$




USA.gov is the U.S. government's official web portal to all federal, state and local government web resources and services.